Regional Weather Roundup
Issued by NWS

Home | Current Version | Previous Version | Graphics & Text | Print | Product List | Glossary On
Versions: 1 2 3 4 5 6 7 8 9 10 11 12 13 14 15 16 17 18 19 20 21 22 23 24 25 26 27 28 29 30 31 32 33 34 35 36 37 38 39 40 41 42 43 44 45 46 47 48 49 50
000
ASUS43 KLOT 280009
RWRIL

ILLINOIS REGIONAL WEATHER ROUNDUP
NATIONAL WEATHER SERVICE CHICAGO/ROMEOVILLE IL
700 PM CDT THU JUL 27 2017

NOTE: "FAIR" INDICATES FEW OR NO CLOUDS BELOW 12,000 FEET WITH NO
SIGNIFICANT WEATHER AND/OR OBSTRUCTIONS TO VISIBILITY.

* THESE STATIONS ARE NOT UNDER NWS QUALITY CONTROL. THEY ALSO MAY NOT
  REPORT WEATHER SUCH AS PRECIPITATION OR FOG.

ILZ001-002-007-009-015-016-024-280100-
NORTHWEST ILLINOIS

CITY           SKY/WX    TMP DP  RH WIND       PRES   REMARKS
MOLINE         SUNNY     82  64  54 NE15      29.93R HX  83
6HR MIN TEMP:  82; 6HR MAX TEMP:  86;

STERLING*      SUNNY     80  65  59 NE9       29.95R HX  82
SAVANNA*       SUNNY     81  64  57 NE9       29.95S HX  82
$$

ILZ003-004-008-010-011-017-018-280100-
NORTH CENTRAL ILLINOIS

CITY           SKY/WX    TMP DP  RH WIND       PRES   REMARKS
ROCKFORD       MOSUNNY   81  61  50 NE14      29.97R HX  82
6HR MIN TEMP:  81; 6HR MAX TEMP:  87;

FREEPORT*      SUNNY     78  64  62 NE7       29.98S
ROCHELLE*      SUNNY     77  62  59 NE13      29.96R
DE KALB*       SUNNY     76  59  55 NE14      29.97R
PERU*          SUNNY     78  62  57 NE15      29.93S
$$

ILZ005-006-012>014-019>023-280100-
NORTHEAST ILLINOIS

CITY           SKY/WX    TMP DP  RH WIND       PRES   REMARKS
CHICAGO-OHARE  MOSUNNY   77  54  44 NE16G26   29.94S
6HR MIN TEMP:  77; 6HR MAX TEMP:  82;

CHICAGO-MIDWAY MOSUNNY   77  61  57 N18       29.93R
6HR MIN TEMP:  77; 6HR MAX TEMP:  82;

AURORA         SUNNY     78  58  49 NE15      29.94S
6HR MIN TEMP:  78; 6HR MAX TEMP:  83;

LANSING*       SUNNY     73  64  71 N9G21     29.94R
JOLIET*        SUNNY     79  59  49 NE15G24   29.93R HX  80
WAUKEGAN       SUNNY     73  56  54 N14G22    29.95S
6HR MIN TEMP:  73; 6HR MAX TEMP:  79;

DUPAGE AIRPORT SUNNY     76  60  57 N13       29.94R
6HR MIN TEMP:  76; 6HR MAX TEMP:  83;

WHEELING       SUNNY     76  55  48 N16G22    29.96S
6HR MIN TEMP:  76; 6HR MAX TEMP:  80;

MORRIS*        SUNNY     78  60  54 NE3       29.92R
ROMEOVILLE*    SUNNY     76  54  46 NE15      29.93R
NORTHERLY ISL    N/A     72  63  73 N20         N/A
$$

LMZ740>746-280100-
SOUTHERN LAKE MICHIGAN

STATION/POSITION SKY/WX   TEMP    WIND        PRES    VSBY  WAVE
                          AIR SEA DIR/SP/G                  HT/PER
                          (F)     (DEG/KT/KT) (MB)    (MI)  (FT/S)
SOUTHERN BUOY              71 71   10/ 19/ 23 1013.2R         4/ 5
WILMETTE HARBOR            71 72  360/ 17/ 23   N/A           6/ 5
HARRISON CRIB              72     350/ 21/ 23   N/A
BURNHAM HARBOR             72                   N/A
CALUMET HARBOR             73     340/ 14/ 19 1013.4R
BURNS HARBOR               73      20/ 17/ 21 1013.5S
MICHIGAN CITY              73     350/ 18/ 20   N/A
MICHIGAN CITY 6N           73 74   10/ 17/ 23   N/A           6/ 5
ST. JOSEPH                 73 73   40/ 14/ 17 1012.8          5/ 5
$$

ILZ025>027-034>036-040-047-049-050-058-095>099-280100-
WEST-CENTRAL ILLINOIS

CITY           SKY/WX    TMP DP  RH WIND       PRES   REMARKS
QUINCY         SUNNY     83  71  67 N10       29.90S HX  87
GALESBURG*     SUNNY     79  71  76 N10       29.93R HX  81
MACOMB*        PTSUNNY   80  72  74 N9        29.93S HX  84
JACKSONVILLE*  CLOUDY    82  73  75 N7        29.88S HX  86
PITTSFIELD*    SUNNY     82  73  73 N8        29.90S HX  88
$$

ILZ028>032-037-038-041>044-048-051>054-059>061-280100-
CENTRAL ILLINOIS

CITY           SKY/WX    TMP DP  RH WIND       PRES   REMARKS
PONTIAC        MOSUNNY   80  74  83 N9        29.92R HX  84
BLOOMINGTON    MOSUNNY   80  71  74 NE13      29.91R HX  84
DECATUR        MOSUNNY   82  74  76 N6        29.88R HX  88
PEORIA         MOSUNNY   82  72  71 NE10      29.90R HX  87
6HR MIN TEMP:  81; 6HR MAX TEMP:  86;

LACON*         MOSUNNY   80  69  70 NE7G16    29.91R HX  83
LINCOLN*       MOSUNNY   82  73  74 N10       29.89R HX  87
SPRINGFIELD    MOSUNNY   83  74  74 NE9       29.88R HX  89
6HR MIN TEMP:  81; 6HR MAX TEMP:  87; 6HR PCP: TRACE;

TAYLORVILLE    CLOUDY    76  75  96 CALM      29.88S
6HR MIN TEMP:  74; 6HR MAX TEMP:  82; 6HR PCP:  0.47;

$$

ILZ033-039-045-046-055>057-062-063-280100-
EAST-CENTRAL ILLINOIS

CITY           SKY/WX    TMP DP  RH WIND       PRES   REMARKS
CHAMPAIGN      MOSUNNY   82  72  71 NE9       29.88R HX  87
RANTOUL*       PTSUNNY   84  74  72 NE14G20   29.88S HX  90
MATTOON        CLOUDY    77  76  96 W3        29.86S
PARIS*         DRIZZLE   76  76  97 CALM      29.88S
$$

ILZ079-100>102-280100-
SOUTHWEST ILLINOIS

CITY           SKY/WX    TMP DP  RH WIND       PRES   REMARKS
ALTON          DRIZZLE   75  75 100 N6        29.88R
BELLEVILLE     SUNNY     77  74  91 CALM      29.87F
CAHOKIA*       LGT RAIN  79  75  87 W6        29.87R HX  83
SPARTA*        PTSUNNY   84  72  67 W5        29.88S HX  89
$$

ILZ064>066-069>071-074>076-080>082-084>086-088>090-092>094-280100-
SOUTH-CENTRAL ILLINOIS

CITY           SKY/WX    TMP DP  RH WIND       PRES   REMARKS
CARBONDALE     CLOUDY    84  74  71 W5        29.86F HX  91
6HR MIN TEMP:  79; 6HR MAX TEMP:  86; 6HR PCP:  0.02;

CAIRO*         CLOUDY    82  78  88 CALM      29.87S HX  90
EFFINGHAM*     CLOUDY    80  76  86 W7        29.89R HX  85
MARION         PTSUNNY   84  82  94 SW8       29.87F HX 101
MT. VERNON     CLOUDY    84  75  74 W6        29.86F HX  92
CENTRALIA*     MOSUNNY   83  77  81 W6        29.86S HX  91
SALEM*         MOSUNNY   82  75  80 CALM      29.87S HX  89
METROPOLIS*    CLOUDY    82  74  78 SW5       29.89S HX  88
$$

ILZ067-068-072-073-078-083-087-091-280100-
SOUTHEAST ILLINOIS

CITY           SKY/WX    TMP DP  RH WIND       PRES   REMARKS
LAWRENCEVILLE  CLOUDY    81  76  84 CALM      29.86S HX  87
FLORA*         CLOUDY    82  76  84 NW6       29.87R HX  88
FAIRFIELD*     CLOUDY    82  76  83 CALM      29.85S HX  88
HARRISBURG*    CLOUDY    81  77  89 CALM      29.87F HX  89
ROBINSON*      CLOUDY    76  75  96 CALM      29.87S
CARMI*         PTSUNNY   82  76  81 SW3       29.86S HX  90
$$

ABBREVIATIONS USED IN REMARKS
   TC - TEMPERATURE IN CELSIUS
  WCI - WIND CHILL INDEX
   HX - HEAT INDEX
  VSB - VISIBILITY
$$





USA.gov is the U.S. government's official web portal to all federal, state and local government web resources and services.